Location: Unspecified
(64.9000°N, 0.0000°E)
Time: 10:36:55
(UTC+00:00)

Transit 2A Rocket - Pass Details

Date: 21 June 2019
Orbit: 588 x 915 km, 66.7° (Epoch: 16 July)

Event Time Altitude Azimuth Distance (km) Brightness Sun altitude
Rises 14:39:52 0° 271° (W) 3,510 9.0 41.3°
Reaches altitude 10° 14:42:28 10° 273° (W) 2,540 8.4 41.1°
Maximum altitude 14:48:22 74° 359° (N) 871 5.8 40.6°
Drops below altitude 10° 14:53:48 10° 85° (E) 2,342 7.2 40.2°
Sets 14:56:07 0° 87° (E) 3,218 7.8 40.0°
